www.pogodaiklimat.ru
ПОГОДА в Секстон Маунтин Пасс
Время
и дата
04:56 23.05
07:56 23.05
08:56 23.05
09:56 23.05
10:56 23.05
11:56 23.05
12:56 23.05
14:56 23.05
17:56 23.05
01:56 24.05
02:56 24.05
03:56 24.05
05:56 24.05
07:56 24.05
09:56 24.05
14:56 24.05
15:56 24.05
20:56 24.05
21:04 24.05
23:56 24.05
00:56 25.05
01:06 25.05
02:56 25.05
04:56 25.05
05:06 25.05
07:56 25.05
08:56 25.05
10:56 25.05
13:56 25.05
14:56 25.05
23:56 25.05
01:56 26.05
02:56 26.05
03:56 26.05
04:56 26.05
05:56 26.05
08:56 26.05
09:56 26.05
10:56 26.05
16:56 26.05
17:56 26.05
00:56 27.05
02:56 27.05
10:56 27.05
14:56 27.05
15:56 27.05
16:56 27.05
19:56 27.05
Ветер
(напр.,м/с)
Видим. Явления Облачность Т
(С)
Тd
(С)
f
(%)
Тe
(С)
Тes
(С)
Комфортность P
(гПа)
Po
(гПа)
Тmin
(С)
Tmax
(С)
R
(мм)
R24
(мм)
S
(см)
штиль 0 16 км ясно +2.2 -1.1 79 +1 +1 1019.2 885.5
штиль 0 16 км ясно +6.1 +1.1 70 +5 +10 1019.5 885.5
ЮВ 2 16 км ясно +7.8 +2.2 68 +6 +13 1019.3 885.2
штиль 0 16 км ясно +8.9 +2.2 63 +8 +23 опасность
простуды
1019.2 885.2 +1.7 +9.4
16 км ясно +10.0 +2.8 61 +10 +30 опасность
простуды
1019.0 885.2
нст 2 16 км ясно +12.8 +3.3 52 +12 +30 опасность
простуды
1018.3 884.9
штиль 0 16 км ясно +15.0 +3.9 47 +15 +41 опасность
простуды
1017.5 884.6
штиль 0 16 км ясно +16.1 +2.8 41 +16 +38 опасность
простуды
1016.4 884.0
нст 2 16 км ясно +13.3 +2.2 47 +13 +18 1015.5 883.1
С 4 16 км ясно +5.6 +4.4 92 +2 +2 1012.5 881.0
С 4 16 км ясно +6.1 +3.9 86 +2 +2 1012.0 880.7
С 4 16 км ясно +6.1 +2.8 79 +2 +2 1011.5 880.5 +5.6 +8.3
С 3 16 км ясно +6.1 +3.9 86 +3 +3 1011.7 880.5
С 2 16 км слабый дождь ясно +8.3 +4.4 76 +7 +10 1012.1 880.5
штиль 0 16 км слабый дождь ясно +12.2 +5.6 64 +12 +27 опасность
простуды
1011.6 880.5 +5.6 +12.2
штиль 0 16 км ясно +17.0 +1.0 34 +17 +39 опасность
простуды
1010.2 879.6
штиль 0 16 км ясно +16.7 +2.2 38 +17 +34 опасность
простуды
1009.9 879.3 +11.7 +17.8
штиль 0 16 км ясно +7.2 +6.1 93 +6 +6 1012.1 880.2
штиль 0 16 км 2/2 120 м +7.2 +5.6 90 +6 +6 880.2
СЗ 2 3 км дымка 10/10 60 м +6.7 +6.7 100 +4 +4 1011.2 880.2
штиль 0 3 км дымка 10/10 60 м +6.7 +6.7 100 +6 +6 1011.1 879.9
штиль 0 2 км дымка ?/? +6.1 +6.1 100 +5 +5 879.9
С 2 2 км дымка ?/? +5.0 +5.0 100 +2 +2 1010.8 879.9
С 3 2 км дымка ?/? +2.8 +2.8 100 -2 -2 1011.9 880.2
С 2 1 км дымка ?/? +3.3 +3.3 100 0 0 880.2
штиль 0 16 км 10/10 270 м +3.3 +2.8 97 +2 +2 1014.7 881.6
С 2 16 км 10/10 330 м +5.0 +2.8 86 +2 +2 1015.3 882.2
нст 2 16 км 8/8 630 м +7.8 +1.7 65 +6 +9 1016.0 883.1
штиль 0 16 км ясно +12.2 +2.8 53 +12 +37 опасность
простуды
1016.2 883.7
нст 2 16 км ясно +12.2 +3.3 54 +12 +28 опасность
простуды
1016.1 883.7
С 2 16 км ясно +5.0 +1.7 79 +2 +2 1017.6 884.6
ЮЗ 2 16 км ясно +6.1 +1.1 70 +4 +4 1017.0 884.6
Ю 2 16 км ясно +5.0 +1.7 79 +2 +2 1017.2 884.6
ЮВ 3 16 км ясно +5.6 +1.7 76 +2 +2 1017.1 884.6 +4.4 +6.7
ЮВ 3 16 км ясно +5.0 +1.1 76 +2 +2 1017.6 884.9
ЮВ 3 16 км ясно +6.1 +1.7 73 +3 +3 1018.1 885.2
нст 2 16 км ясно +11.7 +5.0 63 +11 +18 1018.4 885.7
штиль 0 16 км ясно +12.2 +5.0 61 +12 +27 опасность
простуды
1018.8 886.0 +5.0 +12.8
штиль 0 16 км ясно +13.3 +6.1 62 +13 +33 опасность
простуды
1018.8 886.0
штиль 0 16 км ясно +18.9 +5.6 42 +19 +31 опасность
простуды
1017.3 885.7
штиль 0 16 км ясно +17.2 +5.6 46 +17 +24 1017.4 885.7
С 3 16 км ясно +10.6 +5.6 71 +9 +9 1017.0 886.0
ЮВ 2 16 км ясно +10.0 +6.1 77 +9 +9 1016.5 886.0
нст 2 16 км ясно +17.8 +8.3 54 +18 +33 опасность
простуды
1017.6 886.6
штиль 0 16 км ясно +21.7 +7.2 39 +23 +45 комфорт 1015.5 885.5
нст 2 16 км ясно +20.6 +6.7 40 +22 +35 комфорт 1015.2 885.2 +15.0 +22.8
нст 2 16 км ясно +19.4 +8.3 49 +21 +30 комфорт 1015.6 884.9
С 2 16 км ясно +13.3 +7.2 67 +13 +13 1016.7 885.7
Местоположение метеостанции Sexton Summit: широта 42.6003 долгота -123.3642 высота над уровнем моря 1170 м.
В архиве по умолчанию представлена погода в Секстон Маунтин Пасс за последние 1-2 суток. Обновление информации о фактической погоде в базе происходит ежечасно! Архивные данные за месяц целиком и за предыдущие месяцы Вы можете получить, выбрав интересующий диапазон дат из раскрывающегося списка и нажав кнопку "Ввод!".
Внимание! Архив погоды МЕТАР в базе сайта по станциям, не включенным в климатический монитор, хранится не более 60 дней. Нет смысла пытаться выбрать более раннюю дату.
*Определитесь, кто Вы:
Внимание! Время в таблицах - местное (без учета летнего времени). Для получения всемирного времени необходимо вычесть поправку, которая равна -8 ч.
Смотрите также архив погоды в соседних городах и на ближайших метеорологических станциях:
Партнеры нашего сайта:      
Пояснения к столбцам:
  • Ветер - указаны скорость ветра в м/с - средняя за 10 мин, порывы в срок и между сроками (в фигурных скобках) и направление, откуда дует ветер: С - северный,
  • СВ - северо-восточный, В - восточный, ЮВ - юго-восточный, Ю - южный, ЮЗ - юго-западный, З - западный, СЗ - северо-западный.
  • Видимость - горизонтальная дальность видимости в метрах или километрах. При видимости от 1 до 10 км при отсутствии осадков обычно наблюдается дымка, при ухудшении видимости до 1 км и менее - туман. В сухую погоду видимость может ухудшаться дымом, пылью или мглою.
  • Явления - указаны атмосферные явления, наблюдавшиеся в срок или в последний час перед сроком; фигурными скобками обозначены явления, наблюдавшиеся между сроками (за 1-3 часа до срока); квадратными скобками обозначены град или гололедные отложения с указанием их диаметра в мм.
  • Облачность - указаны через наклонную черту общая и нижняя облачность в баллах и высота нижней границы облаков в метрах; квадратными скобками обозначены формы облаков: Ci - перистые, Cs - перисто-слоистые, Cc - перисто-кучевые, Ac - высококучевые, As - высокослоистые, Sc - слоисто-кучевые, Ns - слоисто-дождевые, Cu - кучевые, Cb - кучево-дождевые. Подробнее классификацию облаков см. в Атласе облаков (PDF).
  • T - Температура воздуха - температура, измеренная на высоте 2 м над землей.
  • Td - Температура точки росы - температура, при понижении до которой содержащийся в воздухе водяной пар достигнет насыщения.
  • f - Относительная влажность воздуха - влажноcть воздуха, измеренная на высоте 2 м над землей.
  • Te - Эффективная температура - температура, которую ощущает одетый по сезону человек в тени. Характеристика душности погоды. При расчете учитывается влияние влажности воздуха и скорости ветра на теплоощущения человека.
  • Tes - Эффективная температура на солнце - температура, которую ощущает человек, с поправкой на солнечный нагрев. Характеристика знойности погоды. Зависит от высоты солнца над горизонтом, облачности и скорости ветра. Ночью, в пасмурную погоду, а также при ветре 12 м/с и более поправка равна нулю.
  • P - Атмосферное давление - приведенное к уровню моря атмосферное давление.
  • Po - Атмосферное давление - измеренное на уровне метеостанции атмосферное давление.
  • Tmin - Минимальная температура - минимум температуры воздуха на высоте 2 м над землей.
  • Tmax - Максимальная температура - максимум температуры воздуха на высоте 2 м над землей.
  • R - Количество осадков - Количество выпавших осадков за период времени, мм. При наведении курсора мыши на число - период времени, за который выпало указанное количество осадков.
  • R24 - Количество осадков - Количество выпавших осадков за 24 часа, мм.
  • S - Снежный покров - Высота снежного покрова, см. При наведении курсора мыши на число - состояние снежного покрова и степень покрытия местности в баллах.